• In India
  • List of Countries
  • For 7 days
  • Water Temperature
  • Satellite Maps
  • Weather Map
  • Weather Widgets
  • user-avatar
    Login

    Hourly Weather Bururi

    Today, 20 January, Saturday

    Time Temperature Precipitation Wind Pressure Humidity
    00:00 +16°C° 0.5 mm 1 mps 616 mmHg 86%
    01:00 +16°C° 0.5 mm 1 mps 616 mmHg 86%
    02:00 +15°C° 0 mm 1 mps 616 mmHg 86%
    03:00 +15°C° 0.1 mm 1 mps 616 mmHg 86%
    04:00 +15°C° 0.1 mm 1 mps 616 mmHg 85%
    05:00 +15°C° 0.1 mm 1 mps 616 mmHg 85%
    06:00 +16°C° 0 mm 1 mps 616 mmHg 80%
    07:00 +18°C° 0 mm 1 mps 617 mmHg 76%
    08:00 +20°C° 0 mm 1 mps 618 mmHg 71%
    09:00 +21°C° 0.1 mm 1 mps 618 mmHg 63%
    10:00 +23°C° 0.1 mm 1 mps 618 mmHg 55%
    11:00 +25°C° 0.1 mm 1 mps 619 mmHg 48%
    12:00 +25°C° 0.4 mm 2 mps 618 mmHg 51%
    13:00 +24°C° 0.4 mm 2 mps 617 mmHg 55%
    14:00 +24°C° 0.4 mm 2 mps 617 mmHg 58%
    15:00 +21°C° 0.8 mm 2 mps 616 mmHg 65%
    16:00 +20°C° 0.8 mm 2 mps 616 mmHg 71%
    17:00 +19°C° 0.8 mm 2 mps 615 mmHg 78%
    18:00 +19°C° 0.7 mm 1 mps 615 mmHg 81%
    19:00 +18°C° 0.7 mm 1 mps 616 mmHg 85%
    20:00 +16°C° 0.7 mm 1 mps 616 mmHg 88%
    21:00 +16°C° 0.3 mm 1 mps 616 mmHg 88%
    22:00 +16°C° 0.3 mm 1 mps 616 mmHg 88%
    23:00 +16°C° 0.3 mm 1 mps 617 mmHg 88%

    Tomorrow, 21 January, Sunday

    Time Temperature Precipitation Wind Pressure Humidity
    00:00 +16°C° 0 mm 1 mps 616 mmHg 87%
    01:00 +15°C° 0 mm 1 mps 616 mmHg 86%
    02:00 +15°C° 0 mm 1 mps 616 mmHg 85%
    03:00 +15°C° 0 mm 1 mps 616 mmHg 84%
    04:00 +15°C° 0 mm 1 mps 616 mmHg 83%
    05:00 +15°C° 0 mm 1 mps 616 mmHg 83%
    06:00 +16°C° 0 mm 1 mps 616 mmHg 78%
    07:00 +18°C° 0 mm 1 mps 617 mmHg 74%
    08:00 +18°C° 0 mm 0 mps 618 mmHg 70%
    09:00 +22°C° 0 mm 1 mps 618 mmHg 63%
    10:00 +23°C° 0 mm 1 mps 618 mmHg 55%
    11:00 +25°C° 0 mm 1 mps 619 mmHg 48%
    12:00 +25°C° 0.2 mm 2 mps 618 mmHg 48%
    13:00 +26°C° 0.2 mm 2 mps 618 mmHg 49%
    14:00 +26°C° 0.2 mm 2 mps 617 mmHg 50%
    15:00 +24°C° 0.8 mm 2 mps 616 mmHg 57%
    16:00 +23°C° 0.8 mm 2 mps 616 mmHg 63%
    17:00 +21°C° 0.8 mm 2 mps 615 mmHg 70%
    18:00 +20°C° 0.8 mm 2 mps 615 mmHg 75%
    19:00 +19°C° 0.8 mm 1 mps 616 mmHg 80%
    20:00 +18°C° 0.8 mm 1 mps 616 mmHg 86%
    21:00 +18°C° 0.2 mm 1 mps 616 mmHg 85%
    22:00 +16°C° 0.2 mm 1 mps 616 mmHg 85%
    23:00 +16°C° 0.2 mm 1 mps 616 mmHg 84%

    Day after tomorrow, 22 January, Monday

    Time Temperature Precipitation Wind Pressure Humidity
    00:00 +16°C° 0.1 mm 1 mps 616 mmHg 83%
    01:00 +16°C° 0.1 mm 1 mps 616 mmHg 83%
    02:00 +16°C° 0.1 mm 1 mps 615 mmHg 82%
    03:00 +16°C° 0 mm 1 mps 615 mmHg 81%
    04:00 +15°C° 0 mm 1 mps 615 mmHg 81%
    05:00 +15°C° 0 mm 1 mps 615 mmHg 80%
    06:00 +18°C° 0 mm 1 mps 616 mmHg 76%
    07:00 +19°C° 0 mm 1 mps 617 mmHg 72%
    08:00 +20°C° 0 mm 1 mps 617 mmHg 67%
    09:00 +22°C° 0.1 mm 1 mps 618 mmHg 60%
    10:00 +24°C° 0.1 mm 1 mps 618 mmHg 54%
    11:00 +25°C° 0.1 mm 1 mps 618 mmHg 47%
    12:00 +26°C° 0.4 mm 1 mps 618 mmHg 48%
    13:00 +26°C° 0.4 mm 1 mps 617 mmHg 50%
    14:00 +26°C° 0.4 mm 2 mps 616 mmHg 51%
    15:00 +25°C° 0.3 mm 1 mps 616 mmHg 54%
    16:00 +24°C° 0.3 mm 1 mps 615 mmHg 57%
    17:00 +23°C° 0.3 mm 1 mps 615 mmHg 61%
    18:00 +21°C° 0.3 mm 1 mps 615 mmHg 66%
    19:00 +20°C° 0.3 mm 1 mps 615 mmHg 72%
    20:00 +19°C° 0.3 mm 1 mps 616 mmHg 77%
    21:00 +18°C° 0.4 mm 1 mps 616 mmHg 78%
    22:00 +18°C° 0.4 mm 1 mps 616 mmHg 79%
    23:00 +16°C° 0.4 mm 1 mps 617 mmHg 80%

    23 January, Tuesday

    Time Temperature Precipitation Wind Pressure Humidity
    00:00 +16°C° 0.4 mm 1 mps 616 mmHg 81%
    01:00 +16°C° 0.4 mm 2 mps 615 mmHg 83%
    02:00 +15°C° 0.4 mm 2 mps 615 mmHg 84%
    03:00 +15°C° 0.4 mm 2 mps 615 mmHg 84%
    04:00 +15°C° 0.4 mm 2 mps 615 mmHg 85%
    05:00 +15°C° 0.4 mm 2 mps 615 mmHg 85%
    06:00 +16°C° 0.1 mm 1 mps 616 mmHg 82%
    07:00 +16°C° 0.1 mm 1 mps 616 mmHg 78%
    08:00 +18°C° 0.1 mm 1 mps 617 mmHg 75%
    09:00 +21°C° 0 mm 1 mps 618 mmHg 67%
    10:00 +23°C° 0 mm 1 mps 618 mmHg 58%
    11:00 +25°C° 0 mm 1 mps 618 mmHg 50%
    12:00 +24°C° 0.4 mm 1 mps 617 mmHg 53%
    13:00 +24°C° 0.4 mm 2 mps 616 mmHg 57%
    14:00 +23°C° 0.4 mm 2 mps 615 mmHg 60%
    15:00 +21°C° 0.9 mm 2 mps 615 mmHg 66%
    16:00 +20°C° 0.9 mm 2 mps 615 mmHg 72%
    17:00 +19°C° 0.9 mm 2 mps 614 mmHg 78%
    18:00 +19°C° 0.9 mm 1 mps 615 mmHg 82%
    19:00 +18°C° 0.9 mm 1 mps 615 mmHg 85%
    20:00 +16°C° 0.9 mm 1 mps 615 mmHg 89%
    21:00 +16°C° 0.8 mm 1 mps 616 mmHg 90%
    22:00 +16°C° 0.8 mm 1 mps 616 mmHg 90%
    23:00 +16°C° 0.8 mm 1 mps 616 mmHg 91%

    24 January, Wednesday

    Time Temperature Precipitation Wind Pressure Humidity
    00:00 +15°C° 0.6 mm 1 mps 615 mmHg 91%
    01:00 +15°C° 0.6 mm 1 mps 615 mmHg 91%
    02:00 +15°C° 0.6 mm 1 mps 614 mmHg 92%
    03:00 +15°C° 0.7 mm 1 mps 614 mmHg 91%
    04:00 +15°C° 0.7 mm 1 mps 615 mmHg 91%
    05:00 +15°C° 0.7 mm 2 mps 615 mmHg 91%
    06:00 +16°C° 0.3 mm 1 mps 615 mmHg 88%
    07:00 +16°C° 0.3 mm 1 mps 616 mmHg 85%
    08:00 +18°C° 0.3 mm 1 mps 617 mmHg 82%
    09:00 +20°C° 0.1 mm 1 mps 617 mmHg 73%
    10:00 +22°C° 0.1 mm 1 mps 617 mmHg 64%
    11:00 +24°C° 0.1 mm 1 mps 618 mmHg 55%
    12:00 +24°C° 0.2 mm 1 mps 617 mmHg 53%
    13:00 +24°C° 0.2 mm 1 mps 616 mmHg 52%
    14:00 +25°C° 0.2 mm 2 mps 616 mmHg 51%
    15:00 +24°C° 0.6 mm 2 mps 615 mmHg 55%
    16:00 +23°C° 0.6 mm 2 mps 615 mmHg 60%
    17:00 +21°C° 0.6 mm 2 mps 615 mmHg 64%
    18:00 +21°C° 0.4 mm 1 mps 615 mmHg 69%
    19:00 +19°C° 0.4 mm 1 mps 615 mmHg 75%
    20:00 +18°C° 0.4 mm 1 mps 615 mmHg 80%
    21:00 +18°C° 0.4 mm 1 mps 616 mmHg 81%
    22:00 +16°C° 0.4 mm 1 mps 616 mmHg 82%
    23:00 +16°C° 0.4 mm 1 mps 616 mmHg 84%

    25 January, Thursday

    Time Temperature Precipitation Wind Pressure Humidity
    00:00 +16°C° 0.5 mm 1 mps 615 mmHg 85%
    01:00 +15°C° 0.5 mm 1 mps 615 mmHg 86%
    02:00 +15°C° 0.5 mm 2 mps 615 mmHg 88%
    03:00 +15°C° 1 mm 2 mps 615 mmHg 88%
    04:00 +15°C° 1 mm 2 mps 615 mmHg 89%
    05:00 +15°C° 1 mm 2 mps 615 mmHg 89%
    06:00 +15°C° 0.9 mm 2 mps 616 mmHg 87%
    07:00 +16°C° 0.9 mm 2 mps 616 mmHg 86%
    08:00 +16°C° 0.9 mm 2 mps 617 mmHg 84%
    09:00 +17°C° 0.3 mm 2 mps 617 mmHg 78%
    10:00 +19°C° 0.3 mm 2 mps 617 mmHg 73%
    11:00 +20°C° 0.3 mm 2 mps 617 mmHg 67%
    12:00 +21°C° 0.1 mm 2 mps 617 mmHg 61%
    13:00 +23°C° 0.1 mm 2 mps 616 mmHg 55%
    14:00 +24°C° 0.1 mm 2 mps 616 mmHg 50%
    15:00 +24°C° 0.2 mm 2 mps 616 mmHg 54%
    16:00 +23°C° 0.2 mm 2 mps 615 mmHg 58%
    17:00 +21°C° 0.2 mm 2 mps 615 mmHg 61%
    18:00 +20°C° 0.2 mm 1 mps 615 mmHg 67%
    19:00 +19°C° 0.2 mm 1 mps 615 mmHg 73%
    20:00 +16°C° 0.2 mm 1 mps 615 mmHg 79%
    21:00 +16°C° 0.3 mm 1 mps 616 mmHg 79%
    22:00 +16°C° 0.3 mm 1 mps 616 mmHg 78%
    23:00 +16°C° 0.3 mm 1 mps 616 mmHg 78%
    Show more